FW9535 Weather Reports


Display with metric or nautical units.
time (UTC)temp
F
wind
direction
speed
MPH
gust
MPH
rain 1hr
in
rain 24hr
in
rain mn
in
humidity
%
barometer
mb
20260509153543 51 277 1.0 2.0 0.00 0.00 0.00 91 1025.0
20260509152039 51 228 0.0 1.0 0.00 0.00 0.00 90 1025.0
20260509150536 51 267 0.0 0.0 0.00 0.00 0.00 90 1024.9
20260509145036 51 270 0.0 0.0 0.00 0.00 0.00 90 1025.3
20260509143534 52 288 0.0 0.0 0.00 0.00 0.00 90 1025.2
20260509142035 52 274 0.0 1.0 0.00 0.00 0.00 89 1025.3
20260509140530 52 220 1.0 1.0 0.00 0.00 0.00 89 1025.3
20260509135029 52 257 1.0 1.0 0.00 0.00 0.00 88 1025.0
20260509133525 53 244 0.0 0.0 0.00 0.00 0.00 88 1025.1
20260509132026 53 273 0.0 0.0 0.00 0.00 0.00 88 1025.2
20260509130525 53 281 1.0 1.0 0.00 0.00 0.00 88 1025.3
20260509125021 53 241 0.0 0.0 0.00 0.00 0.00 88 1025.1
20260509123519 53 274 1.0 1.0 0.00 0.00 0.00 88 1025.3
20260509122015 53 266 1.0 2.0 0.00 0.00 0.00 87 1025.2
20260509120513 53 228 1.0 2.0 0.00 0.00 0.00 87 1025.4
20260509115011 53 238 0.0 0.0 0.00 0.00 0.00 87 1025.5
20260509113511 53 293 0.0 0.0 0.00 0.00 0.00 87 1025.3
20260509112008 53 240 0.0 0.0 0.00 0.00 0.00 88 1025.5
20260509110504 53 272 0.0 0.0 0.00 0.00 0.00 88 1025.3
20260509105003 53 266 0.0 0.0 0.00 0.00 0.00 88 1025.3
20260509103500 53 243 0.0 0.0 0.00 0.00 0.00 89 1025.1
20260509101957 53 236 0.0 0.0 0.00 0.00 0.00 89 1024.9
20260509100454 53 286 0.0 0.0 0.00 0.00 0.00 90 1025.0
20260509094950 53 272 1.0 1.0 0.00 0.00 0.00 89 1024.9
20260509093448 54 278 0.0 0.0 0.00 0.00 0.00 89 1024.6
20260509091947 54 238 2.0 2.0 0.00 0.00 0.00 89 1024.5
20260509090444 55 217 2.0 2.0 0.00 0.00 0.00 88 1024.5
20260509084940 55 273 0.0 0.0 0.00 0.00 0.00 87 1024.4
20260509083438 55 296 0.0 0.0 0.00 0.00 0.00 86 1024.4
20260509081934 56 288 0.0 0.0 0.00 0.00 0.00 85 1023.9
20260509080433 57 285 0.0 0.0 0.00 0.00 0.00 84 1023.9
20260509074931 57 286 0.0 0.0 0.00 0.00 0.00 81 1023.6
20260509073427 58 279 0.0 0.0 0.00 0.00 0.00 79 1023.3
20260509071922 59 283 0.0 0.0 0.00 0.00 0.00 77 1023.0
20260509070419 61 291 0.0 0.0 0.00 0.00 0.00 75 1023.0
20260509064919 63 287 0.0 1.0 0.00 0.00 0.00 71 1022.7
20260509063415 65 208 1.0 2.0 0.00 0.00 0.00 67 1022.8
20260509061913 66 306 0.0 0.0 0.00 0.00 0.00 64 1022.6
20260509060410 67 7 2.0 2.0 0.00 0.00 0.00 65 1022.6
20260509054910 69 292 0.0 0.0 0.00 0.00 0.00 61 1022.6
20260509053408 68 309 0.0 1.0 0.00 0.00 0.00 62 1022.6
20260509051906 69 304 0.0 0.0 0.00 0.00 0.00 57 1022.2
20260509050403 69 214 4.0 7.0 0.00 0.00 0.00 54 1022.2
20260509044900 70 173 3.0 3.0 0.00 0.00 0.00 55 1022.1
20260509043356 71 6 1.0 1.0 0.00 0.00 0.00 56 1022.3
20260509041851 70 284 1.0 2.0 0.00 0.00 0.00 57 1022.1
20260509040350 71 200 2.0 3.0 0.00 0.00 0.00 56 1022.2
20260509034845 70 238 0.0 1.0 0.00 0.00 0.00 56 1022.1
20260509033343 70 237 3.0 3.0 0.00 0.00 0.00 57 1022.3
20260509031841 71 282 1.0 1.0 0.00 0.00 0.00 55 1022.2
20260509030339 73 257 2.0 2.0 0.00 0.00 0.00 50 1022.5
20260509024839 72 304 0.0 1.0 0.00 0.00 0.00 49 1022.5
20260509023336 72 245 3.0 5.0 0.00 0.00 0.00 50 1022.7
20260509021832 71 233 3.0 5.0 0.00 0.00 0.00 50 1023.2
20260509020331 70 263 3.0 5.0 0.00 0.00 0.00 52 1023.1
20260509014828 70 185 2.0 2.0 0.00 0.00 0.00 53 1023.3
20260509013324 70 174 3.0 3.0 0.00 0.00 0.00 53 1023.6
20260509011820 69 250 2.0 2.0 0.00 0.00 0.00 55 1023.7
20260509010318 69 285 2.0 3.0 0.00 0.00 0.00 54 1023.9
20260509004813 68 226 3.0 5.0 0.00 0.00 0.00 55 1024.2
20260509003311 67 238 2.0 2.0 0.00 0.00 0.00 57 1024.3
20260509001809 67 192 4.0 5.0 0.00 0.00 0.00 58 1024.0
20260509000306 67 274 1.0 1.0 0.00 0.00 0.00 59 1024.2
20260508234802 67 279 3.0 3.0 0.00 0.00 0.00 61 1024.1
20260508233302 66 296 1.0 1.0 0.00 0.00 0.00 61 1023.8
20260508231759 64 248 2.0 2.0 0.00 0.00 0.00 66 1024.0
20260508230259 62 262 2.0 2.0 0.00 0.00 0.00 71 1024.0
20260508224757 61 177 3.0 5.0 0.00 0.00 0.00 72 1024.0
20260508223254 60 232 2.0 2.0 0.00 0.00 0.00 72 1023.9
20260508221751 59 221 2.0 2.0 0.00 0.00 0.00 75 1023.6
20260508220246 57 249 2.0 2.0 0.00 0.00 0.00 78 1023.5
20260508214742 57 293 0.0 0.0 0.00 0.00 0.00 77 1023.5
20260508213238 54 234 3.0 7.0 0.00 0.00 0.00 81 1023.3
20260508211738 53 255 0.0 1.0 0.00 0.00 0.00 82 1023.1
20260508210235 51 206 2.0 3.0 0.00 0.00 0.00 85 1022.8
20260508204730 52 225 3.0 3.0 0.00 0.00 0.00 84 1022.8
20260508203225 53 268 0.0 0.0 0.00 0.00 0.00 81 1022.6
20260508201721 53 263 0.0 1.0 0.00 0.00 0.00 81 1022.4
20260508200216 53 215 2.0 2.0 0.00 0.00 0.00 82 1022.2
20260508194712 53 253 0.0 0.0 0.00 0.00 0.00 82 1021.9
20260508193208 53 261 0.0 0.0 0.00 0.00 0.00 83 1021.8
20260508191705 53 231 1.0 2.0 0.00 0.00 0.00 82 1021.5
20260508190200 54 212 0.0 0.0 0.00 0.00 0.00 80 1021.7
20260508184658 54 266 0.0 0.0 0.00 0.00 0.00 80 1021.4
20260508183153 55 278 0.0 0.0 0.00 0.00 0.00 78 1021.3
20260508181653 56 199 1.0 2.0 0.00 0.00 0.00 77 1021.3
20260508180150 56 236 1.0 2.0 0.00 0.00 0.00 77 1021.2
20260508174647 57 231 2.0 2.0 0.00 0.00 0.00 75 1021.0
20260508173142 57 258 1.0 1.0 0.00 0.00 0.00 75 1021.0
20260508171639 57 268 0.0 1.0 0.00 0.00 0.00 76 1020.9
20260508170136 56 266 0.0 0.0 0.00 0.00 0.00 76 1020.9
20260508164632 57 265 0.0 0.0 0.00 0.00 0.00 76 1021.0
20260508163129 57 257 2.0 2.0 0.00 0.00 0.00 75 1020.9
20260508161625 57 248 1.0 1.0 0.00 0.00 0.00 74 1020.8
20260508160124 57 244 2.0 2.0 0.00 0.00 0.00 75 1020.7
20260508154621 56 209 3.0 3.0 0.00 0.00 0.00 76 1020.5